Madera, CA

6:37 PM PDT on September 24, 2016 (GMT -0700)
Madera Municipal

Weather History for KMAE - June, 2013

Change the Weather History Date:

Friday, June 28, 2013

  Actual Average Record
Temperature  
Mean Temperature 85 °F 77 °F  
Max Temperature 103 °F 94 °F 106 °F (2016)
Min Temperature 66 °F 60 °F 55 °F (2005)
Degree Days  
Heating Degree Days 0    
Month to date heating degree days 0  
Since 1 June heating degree days 0  
Since 1 July heating degree days 2301  
Cooling Degree Days 20    
Month to date cooling degree days 299  
Year to date cooling degree days 476  
Since 1 June cooling degree days 299  
Growing Degree Days 34 (Base 50)    
Moisture  
Dew Point 58 °F    
Average Humidity 50    
Maximum Humidity 81    
Minimum Humidity 18    
Precipitation  
Precipitation 0.00 in 0.01 in 0.03 in (2011)
Month to date precipitation T 0.19  
Year to date precipitation 3.52 8.00  
Since 1 July precipitation 8.22  
Snow  
Snow 0.00 in - - ()
Month to date snowfall 0.0  
Since 1 June snowfall 0.0  
Since 1 July snowfall 0.0  
Snow Depth 0.00 in    
Sea Level Pressure  
Sea Level Pressure 29.91 in    
Wind  
Wind Speed 7 mph (WNW)    
Max Wind Speed 13 mph    
Max Gust Speed 16 mph    
Visibility 10 miles    
Events      
T = Trace of Precipitation, MM = Missing Value Source: NWS Daily Summary

Daily Weather History Graph

Daily Weather History Graph

Search for Another Location

Airport or City:

Trip Planner

Search our weather history database for the weather conditions in past years. The results will help you decide how hot, cold, wet, or windy it might be!

Date:

Astronomy

Jun. 28, 2013 Rise Set
Actual Time 5:43 AM PDT 8:24 PM PDT
Civil Twilight 5:12 AM PDT 8:54 PM PDT
Nautical Twilight 4:34 AM PDT 9:33 PM PDT
Astronomical Twilight 3:51 AM PDT 10:16 PM PDT
Moon No Moon Rise 11:47 AM PDT (6/28)
Length of Visible Light 15h 42m
Length of Day
14h 40m
Waning Gibbous, 65% of the Moon is Illuminated
Jun 28
Waning Gibbous
Jun 29
Last Quarter
Jul 8
New
Jul 15
First Quarter
Jul 22
Full

Hourly Weather History & Observations

Time (PDT) Temp. Heat Index Dew Point Humidity Pressure Visibility Wind Dir Wind Speed Gust Speed Precip Events Conditions
12:53 AM 73.0 °F - 63.0 °F 71% 29.97 in 10.0 mi West 3.5 mph - N/A   Clear
1:53 AM 70.0 °F - 62.1 °F 76% 29.96 in 10.0 mi West 5.8 mph - N/A   Clear
2:53 AM 71.1 °F - 60.1 °F 68% 29.95 in 10.0 mi Calm Calm - N/A   Clear
3:53 AM 68.0 °F - 59.0 °F 73% 29.95 in 10.0 mi West 4.6 mph - N/A   Clear
4:53 AM 66.9 °F - 60.1 °F 79% 29.95 in 10.0 mi West 6.9 mph - N/A   Clear
5:53 AM 66.9 °F - 60.1 °F 79% 29.96 in 10.0 mi West 5.8 mph - N/A   Clear
6:53 AM 72.0 °F - 59.0 °F 64% 29.96 in 10.0 mi WNW 4.6 mph - N/A   Clear
7:53 AM 77.0 °F - 59.0 °F 54% 29.97 in 10.0 mi WNW 6.9 mph - N/A   Clear
8:53 AM 81.0 °F 81.3 °F 59.0 °F 47% 29.98 in 10.0 mi WNW 5.8 mph - N/A   Clear
9:53 AM 84.9 °F 84.8 °F 60.1 °F 43% 29.97 in 10.0 mi WNW 6.9 mph - N/A   Clear
10:53 AM 90.0 °F 90.0 °F 61.0 °F 38% 29.96 in 10.0 mi Variable 5.8 mph - N/A   Clear
11:53 AM 93.9 °F 93.6 °F 60.1 °F 32% 29.95 in 10.0 mi WNW 8.1 mph - N/A   Clear
12:53 PM 97.0 °F 96.9 °F 60.1 °F 29% 29.93 in 10.0 mi WNW 10.4 mph - N/A   Clear
1:53 PM 100.0 °F 99.2 °F 57.0 °F 24% 29.91 in 10.0 mi West 9.2 mph - N/A   Clear
2:53 PM 100.9 °F 99.1 °F 54.0 °F 21% 29.90 in 10.0 mi NW 10.4 mph - N/A   Partly Cloudy
3:53 PM 102.9 °F - 52.0 °F 18% 29.87 in 10.0 mi WNW 10.4 mph - N/A   Partly Cloudy
4:53 PM 102.9 °F - 50.0 °F 17% 29.85 in 10.0 mi WNW 10.4 mph - N/A   Partly Cloudy
5:53 PM 102.0 °F - 51.1 °F 18% 29.84 in 10.0 mi WNW 9.2 mph - N/A   Scattered Clouds
6:53 PM 99.0 °F 97.3 °F 55.0 °F 23% 29.84 in 10.0 mi WNW 8.1 mph - N/A   Partly Cloudy
7:53 PM 93.9 °F 92.9 °F 57.9 °F 30% 29.84 in 10.0 mi Calm Calm - N/A   Partly Cloudy
8:53 PM 88.0 °F 87.1 °F 59.0 °F 37% 29.84 in 10.0 mi NW 10.4 mph 19.6 mph N/A   Clear
9:53 PM 82.9 °F 82.8 °F 59.0 °F 44% 29.85 in 10.0 mi North - - N/A   Clear
10:53 PM 82.9 °F 82.6 °F 57.9 °F 42% 29.86 in 10.0 mi North - - N/A   Clear
11:53 PM 77.0 °F - 61.0 °F 58% 29.87 in 10.0 mi North - - N/A   Clear